Regional Weather Roundup
Issued by NWS

Home | Current Version | Previous Version | Graphics & Text | Print | Product List | Glossary On
Versions: 1 2 3 4 5 6 7 8 9 10 11 12 13 14 15 16 17 18 19 20 21 22 23 24 25 26 27 28 29 30 31 32 33 34 35 36 37 38 39 40 41 42 43 44 45 46 47 48 49 50
000
ASUS43 KFSD 221510
RWRSD

WEATHER ROUNDUP FOR SOUTH DAKOTA
NATIONAL WEATHER SERVICE SIOUX FALLS SD
900 AM CST MON DEC 22 2014

NOTE: "FAIR" INDICATES FEW OR NO CLOUDS BELOW 12,000 FEET WITH NO
SIGNIFICANT WEATHER AND/OR OBSTRUCTIONS TO VISIBILITY.


SDZ001>005-009-010-012>017-221600-
NORTHWEST AND NORTH CENTRAL SOUTH DAKOTA

CITY           SKY/WX    TMP DP  RH WIND       PRES   REMARKS
BUFFALO          N/A     35  27  72 NW32G49   29.44F WCI  21
FAITH            N/A     36  28  73 NW25G33   29.48R
MOBRIDGE       CLOUDY    33  32  96 N5        29.42R FOG     WCI  29
$$

SDZ012>016-024>037-041>051-057-063-072>074-221600-
SOUTHWEST AND SOUTH CENTRAL SOUTH DAKOTA

CITY           SKY/WX    TMP DP  RH WIND       PRES   REMARKS
RAPID CTY ARPT CLOUDY    41  20  43 NW24G38   29.54F
PIERRE         CLOUDY    37  34  89 NW15      29.45S
CUSTER         MOCLDY    30  18  60 NW17G32   29.55S WCI  18
ELLSWORTH AFB  MOCLDY    39  22  49 NW30G37   29.52
PHILIP         CLOUDY    39  29  67 NW16G24   29.52S
PINE RIDGE     PTCLDY    35  27  72 W12       29.60S WCI  27
SPEARFISH      FAIR      36  23  60 W21G33    29.58S
WINNER         CLOUDY    39  35  86 NW16      29.48S
$$

SDZ004>011-016>023-039-040-221600-
NORTHEAST SOUTH DAKOTA

CITY           SKY/WX    TMP DP  RH WIND       PRES   REMARKS
ABERDEEN       FOG       33  32  96 CALM      29.43S VSB 1/4
WATERTOWN      CLOUDY    37  36  96 SE9       29.42F
SISSETON         N/A     35  35 100 S10       29.46S WCI  27
$$

SDZ017-020-022-023-036>040-048>070-221600-
SOUTHEAST SOUTH DAKOTA

CITY           SKY/WX    TMP DP  RH WIND       PRES   REMARKS
SIOUX FALLS    LGT RAIN  40  39  97 S9        29.45S
HURON          CLOUDY    29  27  92 NW5       29.44S WCI  24
CHAMBERLAIN    CLOUDY    35  33  94 W8        29.46R WCI  28
MITCHELL       CLOUDY    34  32  92 W8        29.45S WCI  27
YANKTON        CLOUDY    37  36  93 W8        29.47S
$$

ABBREVIATIONS USED IN REMARKS
   TC - TEMPERATURE IN CELSIUS
  WCI - WIND CHILL INDEX
   HX - HEAT INDEX
  VSB - VISIBILITY



USA.gov is the U.S. government's official web portal to all federal, state and local government web resources and services.